Date String (YYYY-MM-DD hh:mm:ss) UTC,Instrument flags,Ambient pressure (hPa),Sample flow (lpm),Bypass flow (lpm),Sample temperature (°C),Ambient temperature (°C),ASC tube jacket temperature (°C),LED temperature (°C),Box temperature (°C),Sample RH (%),Span deviation,Mass concentration (μg/m³),Mass concentration (μg/m³),Mass concentration (μg/m³)
DateTimeUTC,F1_M11,P_M11,Q1_M11,Q2_M11,T1_M11,T2_M11,T3_M11,T4_M11,T5_M11,U1_M11,ZSPAN_M11,X0_M11,X2_M11,X1_M11
2021-11-26 04:00:00,,0832.0,5.00,0.00,26.7,25.9,00.0,35.7,28.4,06.8,0000.0,0003.27,0001.15,0000.70
2021-11-26 04:01:00,,0832.0,4.99,0.00,26.7,25.9,00.0,35.7,28.4,06.8,0000.0,0002.60,0001.12,0000.69
2021-11-26 04:02:00,,0832.0,5.01,0.00,26.6,25.9,00.0,35.7,28.4,06.8,0000.0,0002.18,0001.11,0000.69
2021-11-26 04:03:00,,0832.1,5.01,0.00,26.6,25.8,00.0,35.7,28.4,06.8,0000.0,0002.05,0001.09,0000.69
2021-11-26 04:04:00,,0832.1,4.99,0.00,26.6,25.8,00.0,35.7,28.4,06.9,0000.0,0001.87,0001.06,0000.69
2021-11-26 04:05:00,,0832.1,5.01,0.00,26.6,25.8,00.0,35.7,28.4,06.9,0000.0,0001.79,0001.05,0000.69
2021-11-26 04:06:00,,0832.1,5.00,0.00,26.6,25.8,00.0,35.7,28.4,06.9,0000.0,0001.73,0001.02,0000.68
2021-11-26 04:07:00,,0832.1,5.00,0.00,26.6,25.8,00.0,35.7,28.4,06.9,0000.0,0001.71,0001.00,0000.67
2021-11-26 04:08:00,,0832.1,5.01,0.00,26.6,25.9,00.0,35.7,28.5,06.9,0000.0,0001.76,0001.01,0000.67
2021-11-26 04:09:00,,0832.1,4.99,0.00,26.6,25.9,00.0,35.6,28.5,06.9,0000.0,0001.92,0001.06,0000.66
2021-11-26 04:10:00,,0832.0,5.00,0.00,26.7,25.9,00.0,35.7,28.5,06.9,0000.0,0001.95,0001.08,0000.66
2021-11-26 04:11:00,,0832.0,4.99,0.00,26.7,25.9,00.0,35.7,28.5,06.9,0000.0,0001.98,0001.04,0000.64
2021-11-26 04:12:00,,0832.0,4.99,0.00,26.7,25.9,00.0,35.7,28.5,06.9,0000.0,0001.94,0001.02,0000.63
2021-11-26 04:13:00,,0831.9,5.01,0.00,26.7,26.0,00.0,35.7,28.5,06.9,0000.0,0001.96,0001.00,0000.63
2021-11-26 04:14:00,,0832.0,5.00,0.00,26.7,26.0,00.0,35.7,28.5,07.0,0000.0,0002.06,0001.01,0000.61
2021-11-26 04:15:00,,0832.0,4.99,0.00,26.7,26.0,00.0,35.7,28.5,07.0,0000.0,0002.03,0001.00,0000.62
2021-11-26 04:16:00,,0831.9,5.00,0.00,26.7,26.0,00.0,35.7,28.5,07.0,0000.0,0002.05,0001.01,0000.61
2021-11-26 04:17:00,,0831.9,5.01,0.00,26.7,26.0,00.0,35.7,28.5,07.1,0000.0,0002.09,0001.03,0000.61
2021-11-26 04:18:00,,0831.8,4.99,0.00,26.7,25.9,00.0,35.7,28.5,07.1,0000.0,0002.03,0001.02,0000.61
2021-11-26 04:19:00,,0831.9,5.00,0.00,26.7,25.9,00.0,35.7,28.5,07.1,0000.0,0001.90,0000.97,0000.60
2021-11-26 04:20:00,,0831.9,5.01,0.00,26.7,25.9,00.0,35.7,28.5,07.1,0000.0,0001.70,0000.89,0000.59
2021-11-26 04:21:00,,0831.9,4.99,0.00,26.7,25.9,00.0,35.7,28.5,07.0,0000.0,0001.58,0000.85,0000.58
2021-11-26 04:22:00,,0831.9,5.01,0.00,26.7,25.9,00.0,35.7,28.4,07.0,0000.0,0001.48,0000.85,0000.58
2021-11-26 04:23:00,,0831.9,4.99,0.00,26.7,25.9,00.0,35.7,28.5,07.0,0000.0,0001.46,0000.85,0000.59
2021-11-26 04:24:00,,0832.0,5.00,0.00,26.7,25.9,00.0,35.7,28.4,07.0,0000.0,0002.15,0000.87,0000.59
2021-11-26 04:25:00,,0832.0,5.01,0.00,26.7,25.9,00.0,35.7,28.4,07.0,0000.0,0002.26,0000.84,0000.60
2021-11-26 04:26:00,,0832.0,4.99,0.00,26.7,25.9,00.0,35.7,28.4,07.0,0000.0,0002.28,0000.86,0000.60
2021-11-26 04:27:00,,0832.0,5.01,0.00,26.7,25.9,00.0,35.7,28.5,07.0,0000.0,0002.24,0000.84,0000.59
2021-11-26 04:28:00,,0831.9,5.01,0.00,26.7,25.9,00.0,35.7,28.5,07.1,0000.0,0002.21,0000.82,0000.59
2021-11-26 04:29:00,,0832.0,4.99,0.00,26.7,25.9,00.0,35.7,28.5,07.1,0000.0,0002.20,0000.81,0000.58
2021-11-26 04:30:00,,0832.0,4.99,0.00,26.7,25.9,00.0,35.7,28.5,07.1,0000.0,0002.23,0000.82,0000.59
2021-11-26 04:31:00,,0832.0,5.01,0.00,26.7,25.9,00.0,35.7,28.5,07.1,0000.0,0002.26,0000.84,0000.60
2021-11-26 04:32:00,,0831.9,5.01,0.00,26.7,25.9,00.0,35.7,28.5,07.1,0000.0,0002.26,0000.84,0000.60
2021-11-26 04:33:00,,0831.9,5.00,0.00,26.7,25.9,00.0,35.7,28.5,07.1,0000.0,0002.20,0000.81,0000.60
2021-11-26 04:34:00,,0832.0,5.00,0.00,26.7,25.9,00.0,35.7,28.5,07.1,0000.0,0002.17,0000.80,0000.60
2021-11-26 04:35:00,,0832.0,5.01,0.00,26.7,25.9,00.0,35.7,28.5,07.1,0000.0,0001.40,0000.78,0000.60
2021-11-26 04:36:00,,0832.0,5.00,0.00,26.7,25.9,00.0,35.7,28.5,07.1,0000.0,0001.25,0000.79,0000.60
2021-11-26 04:37:00,,0831.9,5.01,0.00,26.7,25.9,00.0,35.7,28.5,07.1,0000.0,0001.37,0000.80,0000.60
2021-11-26 04:38:00,,0832.0,4.99,0.00,26.7,25.9,00.0,35.7,28.5,07.1,0000.0,0001.51,0000.81,0000.61
2021-11-26 04:39:00,,0832.0,4.99,0.00,26.7,26.0,00.0,35.7,28.5,07.1,0000.0,0001.56,0000.83,0000.61
2021-11-26 04:40:00,,0831.9,5.02,0.00,26.7,26.0,00.0,35.7,28.5,07.2,0000.0,0001.62,0000.86,0000.62
2021-11-26 04:41:00,,0831.9,4.99,0.00,26.8,25.9,00.0,35.7,28.5,07.1,0000.0,0001.67,0000.89,0000.62
2021-11-26 04:42:00,,0831.8,5.00,0.00,26.7,25.9,00.0,35.7,28.5,07.1,0000.0,0001.70,0000.92,0000.63
2021-11-26 04:43:00,,0831.8,5.01,0.00,26.7,25.9,00.0,35.7,28.5,07.1,0000.0,0001.80,0000.97,0000.64
2021-11-26 04:44:00,,0831.7,5.01,0.00,26.7,25.9,00.0,35.7,28.5,07.2,0000.0,0001.80,0000.98,0000.63
2021-11-26 04:45:00,,0831.7,5.00,0.00,26.7,25.9,00.0,35.7,28.5,07.2,0000.0,0001.78,0000.97,0000.62
2021-11-26 04:46:00,,0831.7,5.01,0.00,26.8,26.0,00.0,35.7,28.5,07.2,0000.0,0001.72,0000.95,0000.61
2021-11-26 04:47:00,,0831.8,4.99,0.00,26.8,26.0,00.0,35.7,28.5,07.2,0000.0,0001.70,0000.95,0000.61
2021-11-26 04:48:00,,0831.8,5.01,0.00,26.8,26.0,00.0,35.7,28.5,07.0,0000.0,0001.61,0000.94,0000.61
2021-11-26 04:49:00,,0831.8,4.99,0.00,26.8,25.9,00.0,35.7,28.5,07.1,0000.0,0001.64,0000.97,0000.62
2021-11-26 04:50:00,,0831.8,5.01,0.00,26.8,25.9,00.0,35.7,28.5,07.2,0000.0,0001.60,0000.97,0000.62
2021-11-26 04:51:00,,0831.8,4.99,0.00,26.8,25.9,00.0,35.7,28.5,07.2,0000.0,0001.57,0000.97,0000.62
2021-11-26 04:52:00,,0831.7,5.00,0.00,26.8,26.0,00.0,35.7,28.5,07.3,0000.0,0001.55,0000.95,0000.63
2021-11-26 04:53:00,,0831.7,5.00,0.00,26.8,26.0,00.0,35.7,28.6,07.4,0000.0,0001.62,0000.97,0000.62
2021-11-26 04:54:00,,0831.7,4.99,0.00,26.7,26.0,00.0,35.7,28.6,07.2,0000.0,0001.66,0000.96,0000.61
2021-11-26 04:55:00,,0831.7,5.02,0.00,26.7,25.9,00.0,35.7,28.5,07.1,0000.0,0001.77,0000.97,0000.62
2021-11-26 04:56:00,,0831.7,4.99,0.00,26.7,25.9,00.0,35.7,28.5,07.1,0000.0,0001.80,0000.97,0000.63
2021-11-26 04:57:00,,0831.7,5.00,0.00,26.7,25.9,00.0,35.7,28.5,07.1,0000.0,0001.83,0000.98,0000.64
2021-11-26 04:58:00,,0831.7,5.00,0.00,26.7,25.9,00.0,35.7,28.5,07.2,0000.0,0001.82,0000.98,0000.64
2021-11-26 04:59:00,,0831.7,5.00,0.00,26.7,25.9,00.0,35.7,28.5,07.2,0000.0,0001.80,0000.99,0000.63
